Location: Ward Pound Ridge Reservation
(41.2500°N, 73.6000°W)
Time: 04:46:24
(UTC-05:00)

Vanguard 2 - All Passes

Search period start: 17 December 2017 00:00
Search period end: 27 December 2017 00:00
Orbit: 553 x 2939 km, 32.9° (Epoch: 16 December)

Date Brightness Start Highest point End Pass type
(mag) Time Alt. Az. Time Alt. Az. Time Alt. Az.
17 Dec - 10:53:11 10° S 10:58:41 14° SSE 11:03:21 10° SE daylight
17 Dec - 12:58:58 10° SW 13:08:24 29° SSE 13:14:43 10° ESE daylight
17 Dec - 15:09:14 10° WSW 15:17:18 40° S 15:22:29 10° ESE daylight
17 Dec - 17:20:05 10° WSW 17:25:18 29° SSW 17:29:09 10° SE visible
18 Dec - 11:08:12 10° SSW 11:16:48 19° SSE 11:23:23 10° ESE daylight
18 Dec - 13:16:19 10° SW 13:26:28 35° SSE 13:32:59 10° ESE daylight
18 Dec - 15:27:16 10° WSW 15:35:18 42° S 15:40:25 10° ESE daylight
18 Dec - 17:38:24 10° WSW 17:43:06 24° SSW 17:46:43 10° SSE visible
19 Dec - 11:24:24 10° SSW 11:34:53 25° SSE 11:42:25 10° ESE daylight
19 Dec - 13:33:58 10° SW 13:44:32 41° S 13:51:08 10° ESE daylight
19 Dec - 15:45:23 10° WSW 15:53:15 41° S 15:58:18 10° ESE daylight
19 Dec - 17:56:55 10° WSW 18:00:49 19° SSW 18:03:59 10° SSE visible
20 Dec - 09:35:59 10° S 09:42:47 14° SSE 09:48:39 10° ESE daylight
20 Dec - 11:41:12 10° SW 11:52:59 32° SSE 12:00:59 10° ESE daylight
20 Dec - 13:51:50 10° WSW 14:02:35 45° S 14:09:10 10° ESE daylight
20 Dec - 16:03:35 10° WSW 16:11:10 38° SSW 16:16:05 10° SE daylight
20 Dec - 18:15:53 10° WSW 18:18:29 13° SW 18:20:44 10° S visible
21 Dec - 09:50:45 10° S 10:00:49 20° SSE 10:08:52 10° ESE daylight
21 Dec - 11:58:27 10° SW 12:11:04 38° SSE 12:19:18 10° E daylight
21 Dec - 14:09:51 10° WSW 14:20:37 48° S 14:27:09 10° ESE daylight
21 Dec - 16:21:52 10° W 16:29:00 33° SSW 16:33:46 10° SE daylight
22 Dec - 10:06:43 10° SSW 10:18:51 26° SSE 10:28:03 10° ESE daylight
22 Dec - 12:16:00 10° SW 12:29:08 44° SSE 12:37:29 10° E daylight
22 Dec - 14:27:59 10° WSW 14:38:37 49° S 14:45:03 10° ESE daylight
22 Dec - 16:40:14 10° W 16:46:45 28° SSW 16:51:16 10° SSE daylight
23 Dec - 08:19:33 10° SSE 08:26:26 14° SE 08:32:41 10° ESE daylight
23 Dec - 10:23:21 10° SSW 10:36:54 33° SSE 10:46:44 10° E daylight
23 Dec - 12:33:48 10° WSW 12:47:13 49° S 12:55:34 10° E daylight
23 Dec - 14:46:11 10° W 14:56:35 47° S 15:02:55 10° ESE daylight
23 Dec - 16:58:48 10° W 17:04:24 22° SSW 17:08:31 10° SSE visible
24 Dec - 08:33:45 10° S 08:44:22 20° SE 08:53:27 10° ESE daylight
24 Dec - 10:40:25 10° SW 10:54:57 39° SSE 11:05:08 10° E daylight
24 Dec - 12:51:46 10° WSW 13:05:17 53° S 13:13:35 10° ESE daylight
24 Dec - 15:04:27 10° W 15:14:29 43° SSW 15:20:41 10° SE daylight
24 Dec - 17:17:44 10° WSW 17:21:57 16° SW 17:25:19 10° S visible
25 Dec - 08:49:26 10° SSW 09:02:17 26° SSE 09:12:54 10° E daylight
25 Dec - 10:57:50 10° SW 11:13:01 46° SSE 11:23:22 10° E daylight
25 Dec - 13:09:52 10° WSW 13:23:21 55° S 13:31:32 10° ESE daylight
25 Dec - 15:22:47 10° W 15:32:18 38° SSW 15:38:18 10° SE daylight
25 Dec - 17:37:58 10° WSW 17:39:24 11° SW 17:40:45 10° SSW visible
26 Dec - 07:04:44 10° SSE 07:09:49 12° SE 07:14:44 10° ESE daylight
26 Dec - 09:05:49 10° SSW 09:20:13 32° SSE 09:31:45 10° E daylight
26 Dec - 11:15:31 10° WSW 11:31:06 51° SSE 11:41:30 10° E daylight
26 Dec - 13:28:03 10° WSW 13:41:22 55° S 13:49:27 10° ESE daylight
26 Dec - 15:41:14 10° W 15:50:01 32° SSW 15:55:47 10° SSE daylight
